Weather in Deryabkino

Russia / Penza Oblast     53°51′35″N   43°11′10″E
temp.,
°C
wind,
m/s
gust,
m/s
humid.,
%
clouds,
%
prec.,
mm/h
press.,
hPa
HPBL,
m
3 march, wed
wed300:00−5wnw479765 0.1 1006135
03:00−5nw4109872 0.1 1007288
06:00−2nw61197100 0.6 1008648
09:00−6nnw6129399 0.8 1010548
12:00−5nw61091100 0.0 1011643
15:00−4nw6108897 0.1 1012860
18:00−5wnw51187100 0.1 1012385
21:00−7w5119692 0.1 1013239
4 march, thu
thu400:00−4wsw7139599 0.1 1010476
03:00−3wsw71394100 0.2 1009641
06:00−3wsw81494100 0.2 1005647
09:00−2wsw91695100 0.6 1003761
12:000w101694100 0.6 1002888
15:000w81392100 0.7 1002968
18:00−1wsw61197100 0.4 1002617
21:00−1wsw61097100 1.4 1002485
5 march, fri
fri500:00−1sw51097100 1.4 1000491
03:00−1wsw5998100 2.5 999529
06:00−4n5896100 1.8 1000348
09:00−5nnw4795100 2.3 1003412
12:00−4nnw459299 0.0 1006459
15:00−3nw248889 0.1 1008585
18:00−7wnw239264 0.0 101021
21:00−9wsw349437 0.0 101235
6 march, sat
sat600:00−8wsw489661 0.1 1013189
03:00−11w349480 0.1 101372
06:00−12wnw3496100 0.0 101360
09:00−12wnw369794 0.0 1014175
12:00−8nw369383 0.0 1014368
15:00−6wnw468692 0.1 1014842
18:00−10nw3494100 0.1 101468
21:00−14nnw349164 0.1 101677
7 march, sun
sun700:00−16wnw23890 0.0 101620
03:00−17wsw34930 0.0 101640
06:00−17sw58950 0.0 1015126
09:00−12sw8148628 0.0 1012464
12:00−7sw101682100 0.0 10081008
15:00−6sw121989100 0.3 10031286
18:00−5sw111893100 1.6 9991224
21:00−3wsw91695100 3.4 9961065